Погода в Татарском Саймане

Россия / Ульяновская область     53°17′28″N   47°07′28″E
темп.,
°C
ветер,
м/с
пор.,
м/с
влажн.,
%
обл.,
%
осадки,
мм/ч
давл.,
гПа
погр.,
м
4 августа, ср
ср401:00+19сз118993 0.0 101118
04:00+18з228849 0.0 101241
07:00+19з498899 0.3 1013362
10:00+21ссз5774100 0.6 1012504
13:00+24зсз445973 0.7 1013895
16:00+24зсз335687 1.3 10131042
19:00+22сз57660 0.0 1013685
22:00+18сз37820 0.0 1014147
5 августа, чт
чт501:00+17сз35830 0.0 101586
04:00+15сз34801 0.0 101668
07:00+17сз486722 0.0 1016210
10:00+22ссз564577 0.0 1016742
13:00+25с443418 0.0 10162527
16:00+25с553574 0.0 10162193
19:00+22с374573 0.0 1016327
22:00+17с33590 0.0 101734
6 августа, пт
пт601:00+15св115997 0.0 101811
04:00+14ссв22605 0.0 101811
07:00+16св125895 0.0 101864
10:00+22в22386 0.0 1018654
13:00+25св12328 0.0 10181794
16:00+26св113028 0.0 10161909
19:00+24всв1141100 0.0 101618
22:00+19всв234753 0.0 101720
7 августа, сб
сб701:00+17вюв224694 0.0 101726
04:00+16юв224852 0.0 101726
07:00+17юв23495 0.0 101787
10:00+24юв23347 0.0 1017514
13:00+28вюв22285 0.0 10171380
16:00+29юв222578 0.0 10161741
19:00+27ю2236100 0.0 101619
22:00+21ю1239100 0.0 101711
8 августа, вс
вс801:00+20в224055 0.0 101711
04:00+19юв2241100 0.0 101713
07:00+20вюв234489 0.0 101856
10:00+27ююв463196 0.0 1017579
13:00+31ююв442399 0.0 10171722
16:00+30ююв4325100 0.0 10171636
19:00+27юв1137100 0.0 101611
22:00+24св1235100 0.0 101611